Theta_e
310 311 314 312 311 299 307 308 304 306 312 308 304 305 306 307 303 301 312 309 314 319 321 323 324 324 326 328 328 328 329 331 335 336 337 339 341 343 345 343 340 342 344 347 352 352 349 349 348 349 353 353 354 358 361 363 363 362 362 365 365 364 364
309 314 314 311 311 310 307 302 306 311 313 311 306 298 302 300 297 301 308 306 308 311 307 323 321 323 325 324 326 327 329 330 330 331 334 338 340 342 344 344 346 345 346 346 350 352 351 351 352 353 358 358 356 357 360 362 364 363 361 362 363 363 363
307 310 309 307 310 312 307 305 311 304 300 299 305 302 295 296 295 299 305 309 310 312 310 317 316 318 321 324 325 325 325 327 329 331 333 337 340 341 343 345 345 347 346 347 349 351 354 350 354 353 355 355 355 353 357 362 362 364 362 362 362 363 362
307 307 306 298 303 309 311 311 307 311 306 304 301 303 305 304 297 298 303 308 306 314 314 318 317 319 321 320 322 322 325 326 327 329 331 334 336 339 340 342 343 347 347 350 352 349 349 352 350 351 355 357 356 357 359 362 358 360 363 365 363 362 361
305 299 302 300 303 302 304 305 304 306 306 310 307 307 304 301 300 299 300 299 305 313 320 319 319 319 321 321 321 323 324 326 327 328 330 332 335 338 341 342 344 345 347 348 350 352 350 357 356 355 354 353 357 355 357 358 355 358 356 357 362 363 363
299 301 305 305 306 307 305 305 303 306 304 302 298 298 307 305 301 297 299 300 308 315 323 320 319 321 321 322 322 322 324 325 327 328 330 331 334 337 337 339 342 345 347 348 352 355 355 353 352 354 353 353 355 356 353 355 356 357 358 355 359 361 362
300 304 306 309 309 308 307 306 305 308 307 306 302 294 301 304 305 311 308 304 305 319 321 322 321 321 321 322 323 322 323 325 326 327 329 330 332 332 335 337 338 340 344 348 351 352 353 354 354 355 354 353 353 356 356 353 354 355 359 357 354 357 361
304 306 308 308 309 307 305 306 308 306 304 304 303 303 304 302 305 305 304 302 306 317 322 321 321 322 322 323 323 322 323 325 325 326 328 328 329 331 333 335 335 336 338 342 348 350 349 350 352 353 355 356 355 355 357 356 355 354 353 355 358 355 353
298 300 303 303 306 306 304 303 306 307 307 307 307 306 307 302 303 303 300 297 304 315 321 321 320 320 320 320 321 323 322 324 325 325 327 328 328 329 330 331 332 334 334 336 340 347 347 349 349 351 354 355 356 358 357 354 356 357 354 354 354 354 356
290 290 291 293 297 300 304 306 305 306 304 304 304 301 304 296 305 307 303 303 310 316 319 318 318 319 319 320 321 323 323 324 324 325 326 328 327 327 328 328 329 330 332 333 336 342 346 347 348 350 351 353 356 358 357 355 351 353 353 353 354 355 356
297 298 300 304 305 302 299 302 303 303 305 306 305 304 301 299 304 304 308 308 308 311 314 315 316 317 317 318 320 320 321 323 324 326 326 327 327 327 327 328 328 331 331 331 333 336 341 344 345 347 351 351 351 350 350 353 354 357 360 357 357 356 356
302 301 301 304 304 301 301 301 301 303 303 304 303 300 300 307 303 299 309 312 308 309 312 314 315 316 318 318 319 319 321 322 322 323 326 329 326 328 328 328 328 328 330 330 331 332 335 340 341 344 349 350 349 350 351 352 357 357 357 359 358 360 358
302 302 302 303 302 302 303 302 302 301 302 303 301 302 304 305 301 301 310 312 309 311 313 315 316 317 318 318 318 320 321 322 323 324 323 324 324 326 326 327 328 328 327 330 331 331 333 336 338 340 343 342 347 352 353 355 356 354 355 355 356 356 359
300 301 301 303 302 301 301 301 301 302 301 301 302 303 305 305 308 310 310 312 310 313 314 316 317 319 319 319 322 321 321 320 322 322 322 323 323 324 325 326 326 328 328 330 331 332 332 331 333 335 338 341 344 347 348 352 354 354 355 354 355 357 355
298 300 301 301 301 300 299 301 301 301 301 301 303 303 304 306 309 310 311 309 308 314 317 317 319 320 319 319 320 319 320 320 320 321 321 322 323 324 325 326 326 328 328 329 330 331 331 331 330 334 336 338 341 342 344 350 354 354 353 353 357 355 355
296 299 299 299 300 299 298 299 300 300 299 298 300 300 304 304 305 310 309 307 307 313 317 318 318 317 317 317 318 319 320 320 321 320 320 322 323 323 325 326 327 327 327 328 329 330 331 330 331 332 334 336 338 339 342 343 346 351 353 353 353 355 354
294 298 299 298 298 297 294 295 298 300 300 301 302 303 305 305 305 304 304 307 312 314 316 314 315 317 317 317 318 318 319 321 320 320 321 322 322 323 324 325 326 326 327 328 329 330 331 333 335 335 334 333 336 339 341 342 345 344 347 347 350 352 355
294 298 298 298 294 288 290 301 303 302 300 301 299 300 302 307 308 308 309 312 315 315 315 313 313 313 315 317 319 321 321 319 319 320 320 321 323 323 323 324 325 326 327 328 329 331 333 332 330 332 336 333 334 337 342 344 344 345 343 343 345 346 351
294 298 298 293 287 289 301 304 305 304 304 303 302 303 304 307 310 310 311 313 314 315 314 315 315 317 318 319 319 319 320 321 319 319 318 320 321 322 322 323 324 324 324 326 328 329 331 332 332 331 331 332 334 334 336 337 340 343 341 340 341 341 343
298 296 295 286 289 300 303 303 304 306 305 304 304 302 305 307 309 312 310 314 314 315 316 315 317 317 318 318 318 319 320 320 321 317 317 318 319 319 320 322 324 325 324 323 325 328 330 332 331 331 332 332 333 334 335 334 338 341 341 341 339 341 341
292 294 295 293 301 299 300 299 301 301 300 301 301 298 303 308 309 312 312 313 313 313 314 315 315 316 315 314 315 318 319 319 319 319 318 319 319 319 320 319 322 324 324 324 326 329 328 328 327 328 334 334 334 334 334 333 337 339 339 338 337 338 339
297 293 292 294 292 289 296 303 306 306 306 306 305 302 300 308 308 310 312 311 312 312 312 313 314 313 310 307 310 315 317 318 318 318 317 318 318 317 317 319 319 323 322 322 323 324 327 329 329 330 331 332 334 334 334 333 335 335 335 335 335 337 336
297 294 291 290 289 294 302 303 306 308 309 309 307 299 296 306 309 309 312 311 312 312 312 312 312 307 303 304 311 315 316 317 317 316 316 316 317 316 316 315 316 319 321 321 321 323 324 324 326 329 333 335 331 331 332 332 333 333 333 333 334 336 336
297 295 292 290 295 295 303 306 306 306 307 305 301 289 291 307 309 311 313 311 311 311 312 312 309 305 301 307 311 315 316 315 316 316 315 315 315 315 315 316 319 319 322 321 318 318 319 322 324 326 325 327 329 330 331 332 332 333 333 334 335 337 338
294 295 294 296 299 306 306 306 306 305 305 301 293 288 301 309 310 310 312 310 311 312 311 309 306 310 313 312 314 314 314 313 313 314 315 315 315 315 315 316 321 318 319 318 317 318 322 327 321 321 324 324 325 328 329 329 329 330 334 335 335 335 335
292 293 291 292 300 306 309 309 307 307 301 291 290 307 314 312 310 312 312 311 312 312 312 308 310 311 312 312 312 311 311 311 312 312 313 313 314 315 318 319 319 318 318 320 320 320 321 319 320 321 323 325 326 327 327 327 329 331 333 334 334 335 335
295 295 293 291 287 304 311 308 305 306 298 303 311 312 313 313 312 312 312 312 312 311 310 310 311 311 310 310 310 310 311 311 311 312 313 314 313 313 314 315 316 317 317 318 317 319 320 321 321 321 321 323 324 325 325 327 328 332 333 333 333 334 335
292 292 290 290 303 307 311 308 301 305 310 313 314 312 310 312 312 311 310 312 312 310 311 309 309 309 309 309 310 311 311 311 312 312 314 314 314 313 314 314 315 316 316 317 317 318 319 321 322 323 324 323 324 323 325 329 329 332 334 333 334 333 333
298 296 298 304 310 312 311 311 310 312 314 316 314 314 313 311 310 313 312 311 312 312 311 310 309 308 308 308 310 309 309 310 310 312 312 313 314 314 313 314 317 317 315 315 315 317 319 321 322 323 323 322 323 323 327 330 332 330 331 331 332 332 331
307 308 308 310 309 310 311 310 313 313 313 315 314 312 311 312 312 311 311 311 312 312 312 310 309 308 309 309 309 309 310 311 311 313 313 314 315 314 315 315 316 315 315 316 316 316 318 320 320 323 322 322 322 325 326 329 328 328 329 331 332 331 330
299 294 308 306 307 310 310 310 311 313 315 314 312 310 309 310 311 311 312 313 313 313 312 310 309 309 309 308 309 310 311 311 312 312 313 314 314 315 314 316 316 316 316 315 315 316 316 319 319 319 319 320 322 324 326 325 325 328 329 330 330 330 331
299 299 306 308 309 310 311 311 310 309 312 314 313 312 313 312 313 312 312 312 311 311 309 310 310 309 309 309 310 310 310 311 312 312 313 314 314 315 316 316 317 316 315 315 315 315 316 317 318 319 319 320 321 322 322 324 325 327 327 328 326 327 327
303 305 306 307 309 309 309 310 311 312 312 313 313 313 312 312 312 312 312 312 311 311 310 312 311 311 310 311 311 310 310 311 312 313 313 313 314 314 314 315 315 315 315 314 315 315 315 316 317 318 318 319 320 321 322 322 325 325 326 327 329 327 326
299 300 303 308 301 300 306 310 311 311 313 312 312 312 312 312 311 311 310 311 312 311 311 311 311 310 311 311 312 311 311 311 312 312 313 313 313 313 314 315 315 315 315 315 315 315 315 317 317 318 318 319 320 320 321 322 324 325 325 326 327 327 327
299 306 308 311 309 308 308 310 311 312 313 312 312 311 312 312 313 313 312 310 311 310 311 312 311 311 311 312 312 311 310 312 313 313 313 312 312 312 313 313 313 314 314 315 315 315 316 317 317 317 318 318 320 320 322 323 324 324 325 325 325 325 326
308 310 313 312 310 307 310 312 313 313 314 312 312 312 313 313 313 313 313 313 311 311 311 311 312 311 311 311 311 310 311 312 312 312 313 313 312 312 313 313 313 313 314 314 314 315 315 316 316 317 317 318 320 320 322 322 322 322 323 324 324 324 323
308 313 313 313 312 312 312 313 313 314 315 315 312 312 312 312 313 313 312 313 313 312 311 310 311 312 311 311 310 311 310 311 312 312 312 312 312 312 312 312 312 313 313 314 314 315 316 317 318 318 317 318 320 319 322 322 321 321 322 322 322 324 325
Wind_Speed
13 18 11 7 4 6 11 11 13 10 7 11 7 7 10 12 9 7 11 11 11 12 7 12 13 10 14 14 13 12 12 10 7 6 5 7 6 5 5 6 6 5 6 9 6 10 12 11 12 10 10 11 10 12 15 15 13 13 13 13 12 11 10
4 13 10 5 9 10 7 12 10 12 13 10 6 5 6 11 10 8 14 16 15 12 10 7 13 14 10 10 14 15 12 12 8 5 5 7 9 4 10 8 6 8 10 12 8 6 8 10 11 8 1 5 9 10 15 15 14 14 14 14 14 12 11
10 3 2 8 14 15 12 5 14 6 8 11 5 3 6 9 12 8 14 21 15 11 11 9 12 11 15 14 12 13 13 12 11 7 7 12 9 8 6 12 11 9 9 11 10 14 8 10 9 8 6 3 6 11 12 15 15 14 14 14 13 11 12
11 7 8 10 11 13 12 7 10 12 9 8 9 6 6 6 8 10 12 14 8 8 11 9 15 10 11 11 11 13 15 14 11 8 7 9 10 9 5 4 5 7 10 10 8 11 13 8 9 7 6 2 7 6 5 4 2 8 11 11 12 12 13
8 9 9 10 11 11 9 8 9 9 9 6 6 6 10 8 6 9 12 9 6 8 8 10 12 12 9 11 11 14 14 13 11 11 9 7 8 8 11 12 9 5 2 5 8 6 6 6 7 6 7 7 5 5 4 7 9 7 7 12 12 10 10
7 7 14 5 1 4 6 9 8 7 7 6 7 10 9 10 8 1 10 10 6 10 10 11 9 12 10 14 15 12 15 13 12 11 10 7 5 6 11 12 13 11 8 7 5 5 6 5 4 5 5 6 3 3 4 3 4 2 1 6 9 7 10
9 5 8 5 5 3 8 8 10 10 9 8 6 5 10 11 4 16 14 12 7 7 9 9 8 10 11 13 16 13 11 14 12 10 10 10 9 11 10 10 11 13 11 9 9 9 8 6 6 4 3 2 3 4 5 4 3 5 5 5 6 11 9
5 4 3 2 4 6 6 8 6 2 3 2 9 5 9 7 6 13 9 8 9 10 6 9 10 11 11 9 13 13 10 12 12 10 10 11 10 10 11 10 11 11 11 11 7 9 8 7 5 4 3 1 1 3 3 2 3 4 4 4 1 5 13
4 3 3 9 6 5 8 8 8 7 6 8 10 8 4 6 8 4 3 10 10 9 9 9 11 12 10 13 10 9 10 9 12 12 9 10 10 11 12 13 12 11 12 14 11 7 8 7 6 6 6 5 4 3 3 3 2 4 3 3 6 6 8
8 7 6 7 9 9 5 6 5 8 5 8 6 3 2 3 5 8 8 7 8 9 9 9 9 10 10 11 12 9 8 10 8 10 12 10 11 10 12 13 13 13 11 11 13 9 5 6 5 5 5 7 7 7 8 3 1 2 4 5 4 3 5
4 4 7 9 7 6 9 10 5 6 5 6 6 4 5 3 8 8 8 16 13 12 12 11 10 10 11 10 10 8 9 11 10 10 10 10 9 10 11 11 11 11 12 14 13 12 10 6 7 6 5 7 10 10 10 10 8 6 5 2 0 4 5
7 6 7 6 7 5 14 13 10 6 5 5 6 5 3 9 7 5 8 18 16 13 14 12 11 12 11 9 7 7 7 7 8 12 11 13 11 11 11 11 12 12 12 12 12 13 13 9 9 9 6 8 9 8 6 6 4 4 5 4 0 4 3
4 5 8 8 6 14 5 6 3 5 9 7 9 7 9 5 4 6 9 10 12 12 13 13 13 12 10 9 9 9 8 9 7 8 10 12 12 12 12 11 11 12 12 11 12 12 13 13 11 10 9 10 8 7 4 3 4 5 5 5 6 5 2
3 6 6 5 7 3 4 6 3 5 2 6 8 9 4 5 6 13 12 9 12 12 13 14 14 13 11 9 6 6 8 9 7 8 8 10 11 11 12 11 11 11 11 12 11 11 12 13 12 11 9 8 7 7 6 4 4 4 3 4 5 5 6
5 4 5 4 5 3 4 6 1 2 5 4 2 3 1 2 8 10 15 12 11 9 11 11 11 11 10 8 5 8 6 4 7 8 9 9 9 10 10 10 11 11 11 12 11 12 12 12 12 9 10 11 10 10 7 5 5 3 4 4 4 4 4
7 8 7 8 8 7 7 9 7 7 8 7 4 7 2 3 4 8 11 10 9 11 17 15 13 10 9 9 9 6 5 3 7 9 8 8 8 9 10 10 10 10 11 12 12 11 11 11 11 10 9 9 9 9 9 10 9 7 3 3 6 6 4
8 8 6 8 7 6 10 11 12 9 7 8 5 7 3 6 7 9 11 8 9 10 10 10 12 15 14 11 7 8 4 5 5 5 7 6 7 8 9 10 10 10 10 11 11 10 9 8 7 8 8 8 8 8 7 7 8 9 7 7 7 6 7
9 8 7 1 3 8 7 4 12 12 11 11 10 8 8 5 5 4 4 14 13 12 12 10 8 11 13 9 8 5 6 3 4 10 8 6 7 8 9 9 10 9 9 9 9 9 9 9 11 9 7 8 8 8 7 6 8 8 9 10 9 10 8
8 6 6 6 6 7 7 7 9 6 8 8 11 2 6 5 7 4 5 18 15 13 10 7 8 7 10 9 11 10 7 7 3 4 8 6 8 7 8 8 9 9 9 9 9 9 9 9 9 9 9 8 7 8 9 9 9 7 8 9 9 10 10
6 6 6 3 5 8 5 7 7 8 6 7 5 4 3 5 6 10 10 8 10 8 9 10 12 9 8 10 7 10 9 5 3 10 2 9 7 7 7 7 7 8 9 9 9 8 8 8 9 9 8 8 8 8 8 8 7 7 8 8 9 9 9
7 6 6 6 8 6 8 4 5 3 3 5 5 4 7 4 4 6 10 9 9 9 13 14 8 5 5 4 7 13 9 9 4 4 8 8 6 5 6 6 7 8 8 8 8 6 7 8 9 9 7 7 7 8 7 7 6 7 8 9 10 10 10
6 7 7 8 7 8 9 7 7 3 4 2 4 4 4 11 8 6 11 11 11 9 5 4 8 7 4 5 6 7 10 8 10 4 2 3 2 5 6 5 6 8 8 9 9 7 6 7 8 7 7 7 6 7 7 7 7 7 9 9 9 9 10
3 5 8 5 6 3 5 10 10 10 7 4 5 5 6 7 6 5 8 10 9 8 8 10 7 5 6 5 6 3 9 10 11 5 3 4 7 5 6 7 8 9 9 9 10 8 8 9 9 8 6 6 7 7 7 7 7 7 7 7 8 8 8
5 5 6 7 2 3 7 10 8 6 7 6 6 6 7 11 8 6 8 9 8 7 7 9 6 5 4 7 5 5 8 9 7 4 5 4 5 6 6 7 10 8 8 9 9 9 9 9 9 9 7 7 7 7 7 6 5 6 6 6 6 6 7
7 7 6 5 5 5 8 7 7 7 4 4 5 3 8 8 8 6 5 8 9 7 8 5 4 6 6 7 5 4 6 5 8 6 3 3 4 6 7 8 9 7 6 6 8 9 8 7 9 9 8 7 8 7 7 6 7 7 6 5 5 6 6
8 7 7 7 4 5 6 5 6 6 4 5 3 5 2 5 9 5 6 11 6 6 5 5 2 8 5 7 4 7 5 5 5 3 5 5 5 5 6 6 6 6 7 8 8 9 9 10 10 9 9 8 7 7 7 7 8 7 6 5 5 5 5
7 7 7 7 5 3 3 8 5 4 5 4 5 6 8 8 8 8 8 6 7 4 4 3 6 2 3 4 5 4 4 3 4 4 5 4 4 5 6 6 7 8 7 8 8 9 9 10 11 10 10 10 9 8 8 9 8 7 6 6 6 5 5
4 6 7 1 6 6 6 3 1 2 8 5 7 7 7 7 6 5 4 5 5 4 3 3 3 1 2 0 0 3 1 1 2 3 4 5 5 5 6 7 8 9 8 8 9 9 9 9 9 10 9 9 8 9 9 7 8 7 6 6 5 5 5
4 3 3 5 3 5 5 4 8 8 8 6 5 3 7 6 7 4 3 7 6 4 3 2 1 2 2 2 1 1 2 2 2 4 5 5 5 6 7 7 8 8 9 10 9 9 9 10 9 9 9 10 10 10 8 7 7 7 7 7 6 6 6
4 5 1 5 3 4 4 5 6 8 7 7 2 4 4 1 6 6 1 5 6 6 3 2 3 3 1 0 1 2 1 2 5 5 4 5 6 6 7 7 7 8 9 9 9 10 10 10 10 8 9 10 11 10 10 9 9 8 8 7 6 7 7
2 4 7 9 7 6 4 2 8 6 6 6 4 3 1 3 2 4 5 3 5 6 7 5 2 2 2 3 3 0 2 3 4 4 5 5 6 6 6 7 7 7 7 8 9 10 10 10 10 10 11 10 11 11 10 11 10 8 9 8 8 6 6
6 3 6 3 4 2 3 6 5 7 7 6 4 2 4 2 2 3 4 5 4 4 5 5 5 4 4 3 2 2 2 2 3 4 5 5 6 6 7 7 7 7 7 8 9 10 10 10 10 10 9 10 10 11 12 12 11 9 9 8 8 8 8
6 8 8 5 4 5 5 2 3 1 6 5 5 5 6 5 5 4 2 4 4 5 4 6 5 5 2 2 1 2 2 2 2 3 5 5 6 7 7 7 7 7 7 9 10 11 11 11 11 10 10 10 10 11 10 11 10 10 9 10 9 9 8
6 5 5 9 4 4 1 3 5 5 5 7 9 11 9 10 9 10 9 4 4 5 2 5 6 6 5 4 2 3 3 4 4 3 4 5 7 8 7 7 8 8 9 9 10 10 10 10 10 10 10 10 9 10 10 10 10 10 10 9 9 8 7
3 6 6 3 3 3 4 2 2 5 4 7 11 9 11 12 10 9 7 8 12 10 7 2 4 3 1 3 2 4 5 2 2 4 5 6 6 7 8 9 9 9 9 10 11 11 11 10 11 11 10 11 10 10 9 9 10 11 10 9 8 8 7
4 4 5 4 2 2 5 8 6 6 5 7 9 9 7 7 8 7 7 7 7 6 7 8 9 8 7 6 7 5 4 4 5 5 4 5 6 7 7 7 9 10 9 10 11 12 11 11 12 12 13 11 9 11 10 9 9 10 11 10 10 9 9
3 5 6 5 4 4 5 6 7 7 7 8 8 9 9 8 8 7 5 4 5 6 7 8 7 4 4 6 5 6 5 5 5 5 5 6 6 6 7 8 9 8 8 9 10 11 11 13 14 13 12 13 12 10 10 10 10 10 10 10 10 10 9
Wind_Direction
203 218 231 222 297 235 165 194 215 234 237 253 244 271 252 238 209 193 92 100 97 124 145 146 134 119 123 126 121 102 91 102 119 122 116 126 130 182 148 165 185 207 226 226 205 222 203 201 200 207 185 181 178 161 170 179 184 185 186 186 187 188 186
168 222 238 293 228 250 282 196 213 232 246 263 273 277 221 228 233 159 142 133 145 169 145 134 134 128 93 94 104 102 103 94 86 77 95 131 135 140 140 157 201 203 213 226 188 274 223 191 201 217 177 198 183 172 171 178 183 188 188 188 189 190 188
191 134 320 232 256 257 258 335 348 281 188 215 200 201 268 209 217 163 140 142 152 163 142 164 128 130 130 125 101 103 94 84 81 80 53 27 51 139 163 158 172 205 220 206 162 207 217 216 200 211 199 209 205 187 172 182 186 191 193 189 190 189 191
150 203 199 226 223 231 257 267 253 228 291 225 200 220 280 285 216 210 141 154 143 127 136 141 133 139 126 108 101 90 86 81 67 49 30 39 30 23 75 111 130 175 189 203 204 187 193 196 207 193 218 35 28 352 42 37 315 226 203 200 191 190 192
124 207 187 216 205 209 203 231 229 212 234 339 243 202 229 230 256 208 144 109 80 106 112 135 130 131 113 113 104 91 85 85 80 67 37 30 42 57 50 40 36 10 225 169 187 204 159 81 67 71 100 132 193 176 133 173 194 221 241 234 201 198 194
196 214 188 220 90 341 260 210 237 233 198 232 212 213 202 244 252 155 139 103 116 116 151 164 149 114 124 105 99 97 91 87 78 72 70 43 59 50 41 44 32 29 50 84 78 73 61 101 102 74 70 67 106 86 112 190 187 203 297 301 277 224 203
196 105 94 38 353 316 319 293 209 211 202 228 243 232 205 226 84 92 114 131 121 92 125 142 143 125 109 103 98 98 95 86 78 75 67 63 48 32 39 43 37 31 27 31 47 57 56 56 51 64 74 84 93 138 179 202 201 169 162 211 251 279 246
69 141 202 203 248 297 273 227 326 3 266 257 252 264 14 322 153 100 104 107 134 147 152 114 102 97 100 98 97 94 94 98 94 82 70 57 49 55 56 48 41 33 27 29 39 50 51 63 73 73 62 43 155 176 182 188 222 225 184 148 76 297 275
166 143 191 234 216 281 233 212 212 265 3 324 356 343 330 276 281 353 146 126 151 155 135 124 130 129 121 93 86 95 101 109 105 96 74 72 61 51 55 53 46 35 28 27 29 61 58 63 59 44 57 62 51 60 171 194 42 338 272 231 185 221 284
196 195 176 195 201 200 253 264 257 4 324 353 339 309 351 271 322 54 77 106 118 133 131 130 122 112 110 107 102 102 81 69 73 83 92 78 69 59 54 55 51 46 34 28 27 48 71 56 50 44 30 30 27 43 31 30 110 291 230 219 208 229 246
52 342 340 310 150 188 230 225 268 266 294 318 321 340 317 342 16 74 106 133 146 158 144 137 124 120 115 111 108 111 110 111 99 81 85 85 79 69 58 58 63 55 47 44 34 25 56 58 39 24 35 48 47 47 42 43 34 328 330 353 127 208 217
333 7 352 351 331 279 205 226 190 236 297 323 309 256 218 82 268 127 141 145 149 152 143 140 133 119 116 112 116 107 102 96 108 113 99 94 79 76 70 59 55 57 54 49 48 42 39 51 42 29 5 57 71 57 48 38 32 18 13 11 174 220 207
224 319 352 339 336 343 164 102 82 204 235 263 260 272 285 26 322 130 160 156 143 147 149 138 126 122 124 128 122 110 117 119 87 69 80 74 77 74 72 71 62 54 54 53 49 50 49 44 50 42 24 37 57 98 66 52 47 38 8 0 14 28 41
152 224 249 251 290 58 20 80 189 6 349 252 249 268 352 355 80 144 157 141 138 143 150 145 131 107 94 75 97 126 91 68 89 86 76 71 67 70 69 60 65 63 57 52 49 53 58 55 38 31 40 49 54 43 70 75 64 29 23 11 7 30 54
273 230 215 285 271 332 299 261 317 253 277 307 319 296 285 83 137 167 140 146 145 135 118 113 120 116 114 113 62 93 94 97 110 109 84 61 61 67 69 64 55 58 59 53 47 43 53 58 53 40 34 30 32 42 41 62 89 68 34 345 13 41 72
264 227 207 219 242 255 269 267 249 207 219 238 198 236 168 227 184 160 134 151 142 141 129 126 128 134 147 126 115 81 54 110 71 38 77 70 59 56 60 59 54 47 48 49 42 41 45 52 50 47 43 41 47 42 25 20 21 43 32 4 26 22 61
253 225 189 237 238 249 246 236 244 223 217 243 240 230 199 210 253 196 177 170 136 132 147 148 137 136 137 140 169 123 85 15 124 104 69 63 47 47 47 55 55 48 41 41 40 33 35 43 63 62 49 45 33 33 41 27 15 14 18 31 34 25 16
257 191 166 158 247 237 245 252 220 210 215 206 227 210 206 117 1 346 138 130 148 148 159 151 169 163 146 138 137 140 125 99 154 123 105 74 53 53 40 44 53 46 43 36 37 26 29 33 35 43 48 52 37 15 10 33 26 20 16 16 24 19 18
260 134 146 191 238 240 57 45 15 168 194 197 216 233 128 138 92 120 113 142 153 172 175 162 155 126 114 134 149 149 163 155 159 118 107 68 69 51 47 43 47 44 37 33 33 22 20 30 34 25 26 37 48 28 19 24 15 26 33 22 19 16 18
292 257 176 219 213 71 90 85 63 42 57 37 83 114 61 104 115 120 129 137 137 136 112 121 119 155 172 158 150 145 146 141 68 324 79 97 61 49 41 38 53 46 38 27 25 19 8 22 32 23 19 17 32 38 25 22 0 9 32 26 22 16 11
247 258 230 194 110 193 127 148 140 160 188 147 207 194 164 174 109 153 135 150 163 166 155 130 111 103 91 39 111 143 140 132 122 40 30 37 45 45 46 18 46 52 34 16 16 10 10 20 25 12 4 17 24 31 26 20 9 12 21 25 17 13 4
237 259 232 235 194 223 190 168 128 184 105 129 184 249 233 178 192 189 162 172 168 149 91 80 109 105 160 207 167 190 128 124 122 125 109 130 91 51 15 7 3 43 28 7 358 355 353 28 28 352 345 10 24 39 24 15 18 21 25 23 16 8 4
220 242 267 239 246 55 43 112 100 83 86 85 78 212 215 153 163 151 151 180 180 163 157 133 121 149 205 212 122 46 123 129 125 120 83 35 28 6 2 345 5 17 8 355 338 340 353 9 7 330 331 17 14 22 24 8 16 20 25 22 11 6 7
264 253 230 246 359 131 101 104 119 122 109 119 189 205 197 130 155 148 154 148 128 138 131 128 175 208 241 103 92 97 84 90 103 68 53 23 356 349 344 358 21 0 345 333 327 338 346 360 337 325 341 8 6 12 6 354 2 12 29 23 3 8 7
229 239 264 255 109 105 128 131 117 127 150 178 217 222 93 137 130 147 182 153 149 122 121 136 179 99 95 91 107 69 68 56 64 63 58 24 18 0 351 8 2 336 331 333 337 335 343 336 323 325 355 356 356 356 352 350 353 353 10 14 12 12 1
244 219 231 247 65 101 131 123 135 94 194 199 173 97 149 90 100 93 142 126 105 131 140 192 85 87 81 74 73 63 50 44 52 26 43 27 17 7 7 344 329 346 346 354 342 337 333 319 330 347 349 347 342 345 342 341 343 338 344 354 355 3 353
243 258 261 235 212 155 227 124 112 52 292 81 101 105 87 92 92 90 70 126 131 158 133 110 70 77 67 55 52 48 45 9 34 32 35 32 21 2 338 340 359 1 356 345 333 330 332 337 346 339 335 333 333 332 329 331 328 329 338 333 340 333 340
253 219 234 303 38 135 122 151 38 37 69 106 103 114 110 114 110 103 105 93 137 170 109 140 112 86 72 33 104 89 106 64 5 29 44 27 10 352 349 357 359 357 341 339 338 335 334 333 332 335 331 327 321 318 315 324 319 324 328 332 319 316 334
300 305 54 117 184 124 157 117 121 106 115 116 108 58 131 158 158 118 150 143 127 126 103 86 60 201 219 275 79 341 10 326 9 32 16 5 1 356 3 354 359 346 340 331 328 326 331 336 333 328 322 316 316 311 316 320 324 325 323 314 310 318 333
261 259 11 94 202 168 164 116 102 120 124 110 127 131 147 54 52 138 183 126 165 160 156 167 171 245 299 221 262 277 316 360 5 359 353 358 2 355 353 348 353 340 324 326 326 326 327 330 329 326 323 321 318 324 327 323 315 306 301 305 318 332 326
241 236 189 196 184 146 193 148 133 135 145 145 159 140 245 69 149 137 121 116 115 134 143 180 205 219 201 233 247 115 14 314 318 329 351 347 347 344 338 342 333 323 328 321 323 325 324 326 325 322 322 320 318 318 314 313 308 314 324 324 318 310 312
230 239 106 67 11 21 180 205 205 168 168 153 159 87 78 95 88 115 124 140 174 174 204 189 189 205 230 247 244 285 289 302 332 335 330 336 333 333 329 324 325 323 322 322 320 320 318 321 317 318 315 313 312 313 314 313 311 308 300 297 296 301 306
226 249 260 212 190 206 230 261 307 290 165 182 182 171 162 159 156 163 150 179 221 188 211 155 171 195 237 299 329 270 268 275 311 317 322 320 320 320 315 322 323 319 327 319 317 314 312 314 313 309 308 306 308 307 306 306 308 307 303 298 296 295 299
241 245 48 6 268 242 237 271 258 282 289 217 203 184 197 182 187 182 189 203 241 269 249 178 193 208 207 215 212 280 321 309 285 289 309 318 311 312 319 322 326 324 317 316 311 309 307 308 307 308 308 307 307 309 308 307 304 301 301 300 296 288 289
259 36 50 24 8 287 254 278 313 287 280 320 316 270 195 189 207 234 212 208 203 187 214 318 311 288 298 258 279 273 265 286 342 318 304 303 311 316 327 325 319 317 316 311 310 310 313 313 310 307 308 308 307 305 304 304 303 298 295 289 285 286 284
299 358 45 58 22 339 326 324 326 319 320 289 277 287 280 246 256 239 227 220 242 229 226 207 213 224 215 212 223 240 280 293 286 289 293 310 321 320 312 305 305 304 309 320 321 322 318 313 311 313 307 304 304 305 301 299 300 302 304 301 294 288 284
309 352 330 336 344 306 309 300 294 291 292 275 272 274 266 254 243 250 245 232 198 214 228 243 242 233 237 242 251 253 249 269 283 298 326 314 294 284 288 295 301 317 324 327 326 323 321 316 311 306 304 306 305 301 303 300 296 288 282 286 292 295 292